This demonstration page uses our WeatherBlox Daily Observations layout. Learn more.

Left ArrowRight Arrow

39.51506, -84.39828

Hourly Observations for October 5, 2015

Temp ( °F °C ) Dew Point ( °F °C ) Humidity (%) Winds ( mph kmh ) Pressure ( in mb ) Visibility ( mi km ) Precip ( " mm )
12:15 am 00:15 Clear 63 17 55 12.8 76 76 ENE 6 9 30.09 1019 10 16 N/A
12:35 am 00:35 Clear 62 16.6 55 12.8 78 78 E 6 9 30.06 1018 10 16 N/A
12:55 am 00:55 Clear 62 16.9 54 12.4 75 75 NNE 5 7 30.06 1018 10 16 N/A
1:15 am 01:15 Clear 62 16.6 55 12.5 77 77 NE 3 6 30.06 1018 10 16 N/A
1:35 am 01:35 Clear 61 16 54 12.4 79 79 NNE 3 6 30.09 1019 10 16 N/A
1:55 am 01:55 Clear 61 16 54 12.4 79 79 ENE 3 6 30.09 1019 10 16 N/A
2:15 am 02:15 Clear 60 15.3 55 12.6 84 84 NNE 3 6 30.09 1019 10 16 N/A
2:35 am 02:35 Clear 57 14.1 53 11.6 85 85 N N/A 30.12 1020 10 16 N/A
2:55 am 02:55 Clear 57 13.8 53 11.6 87 87 NNE 3 6 30.12 1020 10 16 N/A
3:15 am 03:15 Clear 60 15.3 55 12.6 84 84 NNE 5 7 30.12 1020 10 16 N/A
3:35 am 03:35 Clear 59 15.2 55 12.6 85 85 NE 5 7 30.12 1020 10 16 N/A
3:55 am 03:55 Clear 60 15.3 55 12.6 84 84 NNE 3 6 30.12 1020 10 16 N/A
4:15 am 04:15 Clear 57 13.8 52 11.2 84 84 NNE 5 7 30.09 1019 10 16 N/A
4:35 am 04:35 Clear 57 14.1 53 11.5 84 84 NE 5 7 30.09 1019 10 16 N/A
4:55 am 04:55 Clear 57 13.8 52 11.3 85 85 N 3 6 30.12 1020 10 16 N/A
5:15 am 05:15 Clear 57 13.8 53 11.5 86 86 NNE 3 6 30.09 1019 10 16 N/A
5:35 am 05:35 Clear 57 13.8 53 11.5 86 86 NNE 5 7 30.09 1019 10 16 N/A
5:55 am 05:55 Clear 57 13.8 52 11.3 85 85 NNE 3 6 30.12 1020 10 16 N/A
6:15 am 06:15 Clear 57 13.8 53 11.4 86 86 N 3 6 30.12 1020 10 16 N/A
6:35 am 06:35 Clear 57 13.8 53 11.5 86 86 N N/A 30.12 1020 10 16 N/A
6:55 am 06:55 Clear 55 12.6 51 10.5 87 87 NE 3 6 30.12 1020 10 16 N/A
7:15 am 07:15 Clear 55 12.5 51 10.5 88 88 N N/A 30.12 1020 10 16 N/A
7:35 am 07:35 Clear 55 12.5 51 10.5 88 88 N N/A 30.12 1020 10 16 N/A
7:55 am 07:55 Sunny 55 12.6 51 10.4 87 87 N 3 6 30.15 1021 10 16 N/A
8:15 am 08:15 Sunny 57 13.8 53 11.5 86 86 N N/A 30.15 1021 10 16 N/A
8:35 am 08:35 Sunny 57 13.9 53 11.5 86 86 N N/A 30.15 1021 10 16 N/A
8:55 am 08:55 Sunny 60 15.3 54 12.3 82 82 ENE 5 7 30.15 1021 10 16 N/A
9:15 am 09:15 Sunny 60 15.3 54 12 81 81 ENE 6 9 30.15 1021 10 16 N/A
9:35 am 09:35 Sunny 61 16 54 12.1 78 78 NE 6 9 30.15 1021 10 16 N/A
9:55 am 09:55 Sunny 62 16.6 54 12.3 76 76 ENE 6 9 30.12 1020 10 16 N/A
10:15 am 10:15 Sunny 63 17.1 54 12.2 73 73 ENE 6 9 30.12 1020 10 16 N/A
10:35 am 10:35 Sunny 64 18 54 12.2 69 69 ENE 3 6 30.12 1020 10 16 N/A
10:55 am 10:55 Sunny 67 19.7 56 13.4 67 67 ENE 5 7 30.12 1020 10 16 N/A
11:15 am 11:15 Sunny 69 20.8 57 13.8 64 64 NNE 3 6 30.12 1020 10 16 N/A
11:35 am 11:35 Sunny 69 20.8 56 13.4 63 63 ENE 7 11 30.12 1020 10 16 N/A
11:55 am 11:55 Sunny 72 22 56 13.6 59 59 ENE 7 11 30.12 1020 10 16 N/A
12:15 pm 12:15 Sunny 74 23.5 58 14.5 57 57 NE 6 9 30.12 1020 10 16 N/A
12:35 pm 12:35 Sunny 74 23.6 57 14.1 55 55 ENE 3 6 30.09 1019 10 16 N/A
12:55 pm 12:55 Sunny 74 23.6 56 13.5 53 53 NE 6 9 30.09 1019 10 16 N/A
1:15 pm 13:15 Sunny 74 23.6 55 12.8 51 51 ENE 7 11 30.09 1019 10 16 N/A
1:35 pm 13:35 Sunny 75 23.8 54 12.4 49 49 NE 6 9 30.09 1019 10 16 N/A
1:55 pm 13:55 Sunny 77 25.1 56 13.1 47 47 ENE 7 11 30.09 1019 10 16 N/A
2:15 pm 14:15 Sunny 77 25.1 56 13.1 47 47 NNE 8 13 30.09 1019 10 16 N/A
2:35 pm 14:35 Sunny 78 25.8 56 13.3 46 46 E 12 19 30.06 1018 10 16 N/A
2:55 pm 14:55 Sunny 80 26.5 55 12.9 43 43 E 8 13 30.06 1018 10 16 N/A
3:15 pm 15:15 Sunny 80 26.5 55 13 43 43 E 6 9 30.06 1018 10 16 N/A
3:35 pm 15:35 Sunny 78 25.7 54 12.3 43 43 E 6 9 30.03 1017 10 16 N/A
3:55 pm 15:55 Sunny 80 26.5 55 12.5 42 42 NE 9 15 30.03 1017 10 16 N/A
4:15 pm 16:15 Sunny 80 26.5 53 11.9 40 40 NE 6 9 30.03 1017 10 16 N/A
4:35 pm 16:35 Sunny 80 26.5 53 11.6 39 39 ENE 5 7 30.03 1017 10 16 N/A
4:55 pm 16:55 Sunny 80 26.5 53 11.4 39 39 ENE 8 13 30.03 1017 10 16 N/A
5:15 pm 17:15 Sunny 80 26.5 52 11.2 38 38 N N/A 30.03 1017 10 16 N/A
5:35 pm 17:35 Sunny 80 26.5 52 11.1 38 38 ESE 3 6 30.03 1017 10 16 N/A
5:55 pm 17:55 Sunny 80 26.5 52 11.3 39 39 NE 3 6 30.03 1017 10 16 N/A
6:15 pm 18:15 Sunny 80 26.5 53 11.6 39 39 ENE 5 7 30.03 1017 10 16 N/A
6:35 pm 18:35 Sunny 79 26.3 55 12.9 44 44 ENE 5 7 30.03 1017 10 16 N/A
6:55 pm 18:55 Sunny 75 24 56 13.6 52 52 N N/A 30.03 1017 10 16 N/A
7:15 pm 19:15 Clear 70 21.1 58 14.2 65 65 N N/A 30.03 1017 10 16 N/A
7:35 pm 19:35 Clear 69 20.8 61 16.1 75 75 N N/A 30.03 1017 10 16 N/A
7:55 pm 19:55 Clear 67 19.5 61 16 80 80 N N/A 30.06 1018 10 16 N/A
8:15 pm 20:15 Clear 67 19.5 60 15.5 78 78 N N/A 30.06 1018 10 16 N/A
8:35 pm 20:35 Clear 64 18 58 14.6 81 81 N N/A 30.06 1018 10 16 N/A
8:55 pm 20:55 Clear 66 19.1 60 15.5 80 80 N N/A 30.06 1018 10 16 N/A
9:15 pm 21:15 Clear 63 17.1 58 14.3 84 84 N N/A 30.06 1018 10 16 N/A
9:35 pm 21:35 Clear 61 16 56 13.3 84 84 N 3 6 30.09 1019 10 16 N/A
9:55 pm 21:55 Clear 61 16 56 13.5 85 85 N N/A 30.09 1019 10 16 N/A
10:15 pm 22:15 Clear 60 15.4 56 13.1 86 86 N N/A 30.09 1019 10 16 N/A
10:35 pm 22:35 Clear 60 15.3 56 13.1 87 87 N N/A 30.09 1019 10 16 N/A
10:55 pm 22:55 Clear 60 15.3 56 13.1 87 87 N N/A 30.09 1019 10 16 N/A
11:15 pm 23:15 Clear 58 14.3 54 12.3 88 88 N 3 6 30.09 1019 10 16 N/A
11:35 pm 23:35 Clear 58 14.7 55 12.7 88 88 NNE 3 6 30.09 1019 10 16 N/A
11:55 pm 23:55 Clear 58 14.2 54 12.3 88 88 N N/A 30.09 1019 10 16 N/A

Powered by AerisWeather